TimeMST,TemperatureF,Dew PointF,Humidity,Sea Level PressureIn,VisibilityMPH,Wind Direction,Wind SpeedMPH,Gust SpeedMPH,PrecipitationIn,Events,Conditions,WindDirDegrees,DateUTC
4:50 AM,71,65,78,29.91,2,South,4.5,,,,,180,2012-11-10 11:50:00
5:40 AM,64.4,60.8,88,29.94,8.0,South,6.9,-,N/A,,Clear,180,2012-11-10 12:40:00
6:46 AM,64.4,60.8,88,29.97,8.0,South,5.8,-,N/A,,Scattered Clouds,170,2012-11-10 13:46:00
7:44 AM,68.0,62.6,83,30.04,10.0,SSE,6.9,-,N/A,,Scattered Clouds,160,2012-11-10 14:44:00
7:50 AM,73,65,68,29.98,12,South,6.7,,,,Clear,180,2012-11-10 14:50:00
8:47 AM,75.2,59.0,57,30.00,10.0,South,3.5,-,N/A,,Scattered Clouds,180,2012-11-10 15:47:00
9:45 AM,80.6,57.2,45,30.01,12.0,NW,5.8,-,N/A,,Scattered Clouds,320,2012-11-10 16:45:00
10:47 AM,80.6,57.2,45,30.06,12.0,NNE,3.5,-,N/A,,Mostly Cloudy,20,2012-11-10 17:47:00
10:50 AM,85,63,37,30.00,19,NW,4.5,,,,Clear,320,2012-11-10 17:50:00
11:51 AM,82.4,57.2,42,29.97,12.0,North,8.1,-,N/A,,Mostly Cloudy,350,2012-11-10 18:51:00
12:48 PM,82.4,59.0,45,29.94,15.0,NNW,11.5,-,N/A,,Mostly Cloudy,340,2012-11-10 19:48:00
1:45 PM,82.4,59.0,45,29.97,15.0,North,15.0,-,N/A,,Mostly Cloudy,360,2012-11-10 20:45:00
1:50 PM,86,64,38,29.91,19,NW,11.2,,,,Scattered Clouds,320,2012-11-10 20:50:00
2:44 PM,84.2,55.4,37,29.90,15.0,North,9.2,-,N/A,,Mostly Cloudy,360,2012-11-10 21:44:00
3:45 PM,82.4,51.8,35,29.90,12.0,North,12.7,-,N/A,,Scattered Clouds,360,2012-11-10 22:45:00
4:45 PM,84,61,35,29.88,19,NNW,8.9,,,,Clear,330,2012-11-10 23:45:00
4:47 PM,82.4,53.6,37,30.01,10.0,North,9.2,-,N/A,,Scattered Clouds,360,2012-11-10 23:47:00
5:48 PM,78.8,57.2,47,29.91,10.0,NNW,6.9,-,N/A,,Scattered Clouds,340,2012-11-11 00:48:00
6:54 PM,75.2,64.4,69,29.94,10.0,Calm,Calm,-,N/A,,Scattered Clouds,0,2012-11-11 01:54:00
7:45 PM,78,67,62,29.92,2,North,4.5,,,,,0,2012-11-11 02:45:00
7:47 PM,75.2,64.4,69,30.06,10.0,Calm,Calm,-,N/A,,Scattered Clouds,0,2012-11-11 02:47:00
8:45 PM,73.4,55.4,53,29.97,10.0,Calm,Calm,-,N/A,,Partly Cloudy,0,2012-11-11 03:45:00
9:48 PM,68.0,53.6,60,29.99,10.0,Calm,Calm,-,N/A,,Partly Cloudy,0,2012-11-11 04:48:00
10:45 PM,68.0,53.6,60,30.11,10.0,Calm,Calm,-,N/A,,Partly Cloudy,0,2012-11-11 05:45:00
10:50 PM,73,60,54,29.99,2,North,4.5,,,,Scattered Clouds,0,2012-11-11 05:50:00